This is the latest recevied weather packets stored in our database for station/object KF6ILA. If no packets are shown the sender has not sent any weather packets the latest 10 day(s).
| Time | Temp. | Humidity | Pressure | Rain* | Wind** | Luminosity | Snow |
|---|---|---|---|---|---|---|---|
| 1788151256 | 68° F | 49% | 761.6 mmHg | 0 in | - | 0 W/m² | - |
| 1788150068 | 68° F | 57% | 761.5 mmHg | 0 in | - | 0 W/m² | - |
| 1788149771 | 68° F | 58% | 761.5 mmHg | 0 in | - | 0 W/m² | - |
| 1788149474 | 68° F | 59% | 761.5 mmHg | 0 in | - | 0 W/m² | - |
| 1788149177 | 67° F | 59% | 761.4 mmHg | 0 in | - | 0 W/m² | - |
| 1788147395 | 68° F | 64% | 761.2 mmHg | 0 in | - | 0 W/m² | - |
| 1788146801 | 68° F | 63% | 760.9 mmHg | 0 in | - | 0 W/m² | - |
| 1788146504 | 67° F | 65% | 761 mmHg | 0 in | - | 0 W/m² | - |
| 1788146207 | 67° F | 66% | 760.9 mmHg | 0 in | - | 0 W/m² | - |
| 1788145613 | 68° F | 67% | 760.9 mmHg | 0 in | - | 0 W/m² | - |
| 1788145316 | 68° F | 67% | 760.9 mmHg | 0 in | - | 0 W/m² | - |
| 1788145019 | 68° F | 67% | 760.9 mmHg | 0 in | - | 0 W/m² | - |
| 1788144128 | 68° F | 66% | 760.9 mmHg | 0 in | - | 0 W/m² | - |
| 1788143831 | 69° F | 65% | 760.9 mmHg | 0 in | - | 0 W/m² | - |
| 1788143534 | 69° F | 64% | 760.9 mmHg | 0 in | - | 0 W/m² | - |
| 1788143237 | 69° F | 63% | 760.9 mmHg | 0 in | - | 0 W/m² | - |
| 1788142940 | 70° F | 62% | 760.9 mmHg | 0 in | - | 0 W/m² | - |
| 1788142643 | 70° F | 61% | 760.9 mmHg | 0 in | - | 0 W/m² | - |
| 1788141752 | 72° F | 56% | 760.7 mmHg | 0 in | - | 12 W/m² | - |
| 1788141455 | 72° F | 54% | 760.7 mmHg | 0 in | - | 14 W/m² | - |
| 1788141158 | 73° F | 53% | 760.6 mmHg | 0 in | - | 25 W/m² | - |
| 1788140861 | 73° F | 51% | 760.6 mmHg | 0 in | - | 33 W/m² | - |
| 1788140564 | 73° F | 50% | 760.6 mmHg | 0 in | - | 44 W/m² | - |
| 1788140267 | 74° F | 48% | 760.6 mmHg | 0 in | - | 62 W/m² | - |
| 1788139970 | 74° F | 47% | 760.6 mmHg | 0 in | - | 79 W/m² | - |
* Rain latest hour (hover to see other rain measurements)
** Current wind speed in m/s (hover to see current wind gust speed)